TimeCDT,TemperatureF,Dew PointF,Humidity,Sea Level PressureIn,VisibilityMPH,Wind Direction,Wind SpeedMPH,Gust SpeedMPH,PrecipitationIn,Events,Conditions,WindDirDegrees,DateUTC
12:15 AM,62.6,60.8,94,30.01,2.5,Calm,Calm,-,N/A,,Clear,0,2013-10-03 05:15:00
12:35 AM,62.6,60.8,94,30.00,1.0,East,3.5,-,N/A,,Mist,90,2013-10-03 05:35:00
12:55 AM,62.6,60.8,94,30.00,1.2,Calm,Calm,-,N/A,,Mist,0,2013-10-03 05:55:00
1:15 AM,60.8,60.8,100,30.00,0.5,Calm,Calm,-,N/A,Fog,Fog,0,2013-10-03 06:15:00
1:35 AM,62.6,60.8,94,30.00,0.5,Calm,Calm,-,N/A,Fog,Fog,0,2013-10-03 06:35:00
1:55 AM,60.8,60.8,100,30.00,0.5,Calm,Calm,-,N/A,Fog,Fog,0,2013-10-03 06:55:00
2:15 AM,60.8,60.8,100,30.00,2.5,Calm,Calm,-,N/A,,Overcast,0,2013-10-03 07:15:00
2:35 AM,60.8,60.8,100,30.00,2.5,Calm,Calm,-,N/A,,Overcast,0,2013-10-03 07:35:00
2:55 AM,62.6,60.8,94,30.00,1.5,SE,3.5,-,N/A,,Mostly Cloudy,130,2013-10-03 07:55:00
3:15 AM,60.8,60.8,100,30.00,1.2,Calm,Calm,-,N/A,,Mostly Cloudy,0,2013-10-03 08:15:00
3:35 AM,62.6,60.8,94,30.00,2.0,Calm,Calm,-,N/A,,Mostly Cloudy,0,2013-10-03 08:35:00
3:55 AM,62.6,62.6,100,29.99,2.0,SE,3.5,-,N/A,,Mostly Cloudy,140,2013-10-03 08:55:00
4:15 AM,62.6,62.6,100,29.99,2.0,South,3.5,-,N/A,,Mostly Cloudy,170,2013-10-03 09:15:00
4:35 AM,64.4,62.6,94,29.99,3.0,South,4.6,-,N/A,,Overcast,180,2013-10-03 09:35:00
4:55 AM,64.4,64.4,100,29.99,4.0,South,5.8,-,N/A,Rain,Light Rain,170,2013-10-03 09:55:00
5:15 AM,64.4,64.4,100,29.99,5.0,South,4.6,-,N/A,,Overcast,190,2013-10-03 10:15:00
5:35 AM,64.4,64.4,100,29.99,5.0,South,5.8,-,N/A,,Overcast,180,2013-10-03 10:35:00
5:55 AM,66.2,64.4,94,29.99,5.0,South,4.6,-,N/A,,Overcast,180,2013-10-03 10:55:00
6:15 AM,66.2,64.4,94,29.99,4.0,South,5.8,-,N/A,,Overcast,180,2013-10-03 11:15:00
6:35 AM,66.2,64.4,94,29.99,4.0,South,5.8,-,N/A,,Overcast,180,2013-10-03 11:35:00
6:55 AM,66.2,66.2,100,29.99,3.0,South,4.6,-,N/A,,Overcast,170,2013-10-03 11:55:00
7:15 AM,68.0,66.2,94,30.00,4.0,SSE,4.6,-,N/A,,Overcast,160,2013-10-03 12:15:00
7:35 AM,68.0,66.2,94,30.00,3.0,South,4.6,-,N/A,,Overcast,170,2013-10-03 12:35:00
7:55 AM,68.0,66.2,94,30.00,4.0,South,6.9,-,N/A,,Overcast,180,2013-10-03 12:55:00
8:15 AM,68.0,68.0,100,30.00,5.0,South,6.9,-,N/A,,Overcast,180,2013-10-03 13:15:00
8:35 AM,68.0,68.0,100,30.00,7.0,South,9.2,-,N/A,Thunderstorm,Overcast,180,2013-10-03 13:35:00
8:55 AM,69.8,68.0,94,30.00,10.0,South,9.2,-,N/A,,Overcast,180,2013-10-03 13:55:00
9:15 AM,69.8,66.2,88,30.00,10.0,SSW,12.7,-,N/A,Thunderstorm,Thunderstorm,200,2013-10-03 14:15:00
9:35 AM,71.6,66.2,83,30.00,10.0,SW,12.7,17.3,N/A,,Overcast,220,2013-10-03 14:35:00
9:55 AM,71.6,66.2,83,30.00,10.0,SSW,15.0,25.3,N/A,,Overcast,210,2013-10-03 14:55:00
10:15 AM,71.6,66.2,83,30.01,10.0,SW,15.0,23.0,N/A,,Overcast,220,2013-10-03 15:15:00
10:35 AM,73.4,66.2,78,30.00,10.0,SW,16.1,19.6,N/A,,Overcast,220,2013-10-03 15:35:00
10:55 AM,71.6,66.2,83,30.00,10.0,SW,15.0,20.7,N/A,,Overcast,220,2013-10-03 15:55:00
11:15 AM,71.6,64.4,78,30.00,10.0,SW,16.1,19.6,N/A,,Overcast,230,2013-10-03 16:15:00
11:35 AM,71.6,64.4,78,30.01,10.0,SW,10.4,-,N/A,,Light Drizzle,220,2013-10-03 16:35:00
11:55 AM,69.8,66.2,88,30.00,10.0,SSW,9.2,12.7,N/A,Rain,Rain,200,2013-10-03 16:55:00
12:15 PM,69.8,66.2,88,30.01,10.0,SSW,5.8,-,N/A,,Light Drizzle,200,2013-10-03 17:15:00
12:35 PM,71.6,68.0,88,29.99,10.0,SSW,9.2,-,N/A,,Mostly Cloudy,200,2013-10-03 17:35:00
12:55 PM,73.4,66.2,78,29.99,10.0,SSW,11.5,19.6,N/A,,Scattered Clouds,200,2013-10-03 17:55:00
1:15 PM,73.4,66.2,78,29.98,10.0,South,11.5,-,N/A,,Mostly Cloudy,180,2013-10-03 18:15:00
1:35 PM,73.4,66.2,78,29.97,10.0,South,9.2,-,N/A,,Overcast,190,2013-10-03 18:35:00
1:55 PM,73.4,68.0,83,29.96,10.0,South,5.8,-,N/A,,Overcast,190,2013-10-03 18:55:00
2:15 PM,73.4,68.0,83,29.96,10.0,SSE,5.8,-,N/A,,Overcast,150,2013-10-03 19:15:00
2:35 PM,77.0,68.0,74,29.95,10.0,SSE,8.1,-,N/A,,Scattered Clouds,160,2013-10-03 19:35:00
2:55 PM,77.0,68.0,74,29.94,10.0,SSE,8.1,-,N/A,,Scattered Clouds,160,2013-10-03 19:55:00
3:15 PM,78.8,68.0,69,29.93,10.0,SE,8.1,-,N/A,,Scattered Clouds,140,2013-10-03 20:15:00
3:35 PM,78.8,68.0,69,29.92,10.0,SSE,9.2,-,N/A,,Clear,150,2013-10-03 20:35:00
3:55 PM,80.6,68.0,65,29.91,10.0,South,9.2,-,N/A,,Clear,170,2013-10-03 20:55:00
4:15 PM,80.6,66.2,61,29.91,10.0,SSE,5.8,-,N/A,,Mostly Cloudy,150,2013-10-03 21:15:00
4:35 PM,80.6,64.4,58,29.90,10.0,SSE,15.0,-,N/A,,Mostly Cloudy,160,2013-10-03 21:35:00
4:55 PM,78.8,64.4,61,29.90,10.0,South,9.2,17.3,N/A,,Scattered Clouds,170,2013-10-03 21:55:00
5:15 PM,78.8,64.4,61,29.89,10.0,South,11.5,19.6,N/A,,Scattered Clouds,170,2013-10-03 22:15:00
5:35 PM,78.8,64.4,61,29.90,10.0,South,10.4,-,N/A,Thunderstorm,Scattered Clouds,180,2013-10-03 22:35:00
5:55 PM,68.0,64.4,88,29.93,7.0,SW,9.2,-,0.13,Rain-Thunderstorm,Thunderstorms and Rain,220,2013-10-03 22:55:00
6:15 PM,68.0,62.6,83,29.92,10.0,South,3.5,-,N/A,Rain-Thunderstorm,Light Thunderstorms and Rain,180,2013-10-03 23:15:00
6:35 PM,68.0,64.4,88,29.91,10.0,SE,3.5,-,0.01,,Scattered Clouds,130,2013-10-03 23:35:00
6:55 PM,66.2,62.6,88,29.94,10.0,SSE,6.9,-,0.01,,Clear,160,2013-10-03 23:55:00
7:15 PM,66.2,62.6,88,29.94,10.0,ESE,5.8,-,N/A,Thunderstorm,Clear,120,2013-10-04 00:15:00
7:35 PM,66.2,62.6,88,29.94,10.0,ESE,4.6,-,N/A,Thunderstorm,Clear,120,2013-10-04 00:35:00
7:55 PM,66.2,62.6,88,29.94,10.0,SE,5.8,-,N/A,,Scattered Clouds,130,2013-10-04 00:55:00
8:15 PM,66.2,62.6,88,29.94,10.0,SSE,5.8,-,N/A,,Scattered Clouds,150,2013-10-04 01:15:00
8:35 PM,68.0,62.6,83,29.94,10.0,SSE,6.9,-,N/A,,Scattered Clouds,160,2013-10-04 01:35:00
8:55 PM,68.0,62.6,83,29.94,10.0,SSE,6.9,-,N/A,,Scattered Clouds,150,2013-10-04 01:55:00
9:15 PM,68.0,64.4,88,29.95,10.0,SSE,5.8,-,N/A,,Clear,160,2013-10-04 02:15:00
9:35 PM,69.8,64.4,83,29.95,10.0,SSE,6.9,-,N/A,,Scattered Clouds,160,2013-10-04 02:35:00
9:55 PM,69.8,64.4,83,29.96,10.0,South,8.1,-,N/A,,Mostly Cloudy,180,2013-10-04 02:55:00
10:15 PM,69.8,64.4,83,29.96,10.0,SSW,6.9,-,N/A,,Scattered Clouds,200,2013-10-04 03:15:00
10:35 PM,68.0,64.4,88,29.97,10.0,SSW,5.8,-,N/A,,Clear,210,2013-10-04 03:35:00
11:35 PM,68.0,64.4,88,29.96,10.0,SSW,5.8,-,N/A,,Mostly Cloudy,210,2013-10-04 04:35:00
11:55 PM,66.2,64.4,94,29.96,10.0,SSW,6.9,-,N/A,Rain,Light Rain,210,2013-10-04 04:55:00